Wind_Gust
15 16 15 15 15 16 16 16 17 17 17 17 18 18 18 19 19 19 19 19 19 19 18 19 19 20 21 22 23 24 20 18 21 16 9 28 10 19 14 11 7 9 9 5 6 3 5 3 2 3 4 4 8 5 9 7 8 5 10 13 11 13 15 10 13 13 8 15 14 19 17 12 13 10 15 22 21 25 22 20 18 21 21 23 25 25 25 24
15 15 15 16 16 16 16 17 17 17 17 17 18 18 18 18 19 19 19 19 19 19 19 19 19 19 21 20 22 22 19 15 18 18 31 17 17 20 20 20 20 16 9 5 8 6 4 4 5 4 7 8 3 9 6 11 10 12 8 11 20 13 14 7 6 11 9 13 15 21 20 7 9 13 13 21 13 24 27 19 21 26 25 24 24 24 25 22
15 15 16 16 16 16 16 17 17 18 18 18 18 18 18 19 19 19 19 18 18 18 19 18 19 20 20 20 20 19 17 18 10 16 31 23 30 25 23 22 21 14 14 7 7 8 8 4 5 6 6 6 6 10 4 13 12 11 10 14 21 9 7 7 8 12 10 13 22 17 20 13 8 9 6 21 16 25 29 28 19 27 25 24 22 23 22 21
16 16 16 16 17 17 17 18 18 18 18 18 18 18 18 19 19 19 18 18 18 18 18 18 19 19 20 19 19 17 11 10 12 15 9 12 28 32 27 24 21 14 14 9 6 11 7 4 2 6 6 8 8 6 8 13 12 8 12 20 12 8 12 11 10 14 13 10 16 12 18 14 13 10 16 24 20 13 18 31 36 32 30 27 23 22 20 21
16 16 16 16 17 18 18 18 18 18 19 18 19 19 19 19 19 18 18 18 17 18 18 18 18 19 20 21 18 11 14 5 9 3 11 18 14 21 25 27 20 12 15 6 4 2 4 4 3 3 6 14 5 3 10 8 12 7 16 11 8 8 10 11 10 13 13 18 9 10 10 12 8 13 23 23 26 22 28 22 32 34 33 34 29 24 21 20
16 16 16 17 17 18 18 19 19 19 19 19 19 19 19 19 19 18 18 17 17 18 18 17 18 19 19 20 16 7 4 13 7 11 18 22 24 20 21 24 15 11 10 8 8 4 5 4 5 8 9 8 6 13 8 14 7 15 15 8 9 12 15 7 8 11 8 12 10 10 7 7 8 9 6 14 23 17 10 17 24 31 30 28 27 28 23 21
15 16 16 17 17 18 19 19 19 20 19 19 20 19 19 19 19 18 18 17 17 17 18 17 18 19 18 14 16 3 8 26 10 10 23 25 26 26 15 13 16 13 10 10 8 10 7 5 9 7 8 8 8 17 15 5 6 14 23 7 10 10 15 13 15 13 11 11 17 9 6 10 7 13 5 11 9 18 18 19 20 22 23 26 27 22 23 22
15 15 16 16 17 18 18 19 20 20 21 20 20 20 19 19 18 18 17 17 17 17 17 17 16 17 15 13 12 7 4 25 22 8 23 25 25 25 15 12 14 13 11 15 12 11 7 9 12 8 9 14 8 15 8 6 6 12 22 15 13 8 11 11 13 14 14 19 14 9 9 5 8 13 9 12 20 22 23 22 22 22 22 20 21 23 20 19
15 15 15 16 17 17 18 20 20 21 21 21 20 20 20 18 18 17 17 16 17 17 17 17 17 15 12 7 6 9 23 24 8 15 18 22 21 19 13 14 9 15 12 8 6 8 8 11 11 10 12 11 12 9 7 6 13 13 17 15 12 12 10 11 9 11 12 15 8 6 9 9 14 18 17 16 18 22 24 24 23 22 21 20 17 17 18 17
17 15 15 15 16 17 18 20 21 21 21 21 20 20 18 18 17 17 17 17 17 17 16 16 16 13 11 9 7 9 21 13 11 14 19 22 24 18 13 12 13 12 11 8 5 8 11 15 14 8 6 12 6 12 5 9 15 8 8 16 18 19 14 6 9 10 10 8 10 9 9 11 7 12 9 5 22 24 24 24 20 21 22 19 16 16 15 18
19 17 16 15 16 17 18 19 21 21 21 21 20 19 19 18 18 18 17 17 17 17 16 17 15 13 12 7 11 24 12 11 7 17 21 22 23 17 13 13 10 16 15 10 12 11 14 13 6 4 7 17 5 8 6 10 6 8 12 8 8 11 10 8 4 10 5 12 8 10 11 13 5 13 22 17 15 25 27 23 22 19 19 20 18 17 14 16
19 18 16 16 16 17 18 19 20 20 20 20 20 19 19 19 19 18 18 17 18 17 16 16 16 12 13 15 22 37 8 14 19 20 22 21 22 19 17 15 9 13 17 16 13 12 16 16 3 5 16 6 10 5 15 7 6 8 8 14 13 11 20 9 13 10 9 14 9 9 10 12 6 18 23 21 18 20 26 23 22 23 22 20 19 18 16 18
19 20 19 16 16 17 18 19 19 20 20 20 19 19 19 19 19 20 19 18 16 17 17 16 13 8 15 25 33 37 30 35 30 24 25 16 18 18 16 14 14 13 16 16 13 13 14 14 4 6 13 8 8 15 10 11 10 7 3 9 8 8 11 16 7 3 7 12 9 13 14 14 6 17 21 21 22 19 20 24 24 24 24 22 18 18 19 18
19 20 18 17 17 17 17 18 19 19 19 20 19 19 20 20 21 21 20 19 20 19 17 16 11 12 17 27 29 22 16 21 18 18 23 16 13 22 17 17 15 17 15 15 19 10 11 10 10 11 8 8 13 7 15 13 7 9 7 4 10 5 13 9 12 8 11 9 12 8 13 14 5 13 18 20 25 26 22 21 22 23 23 22 20 19 18 20
20 20 20 19 17 16 17 18 19 19 19 20 20 20 20 21 21 22 22 20 18 16 16 12 8 12 13 27 21 31 29 24 21 26 28 15 14 17 19 13 13 14 18 18 17 7 9 12 9 12 14 7 9 10 16 9 5 6 9 13 7 10 13 13 5 12 17 9 7 12 10 15 10 17 20 18 22 22 25 22 22 20 21 20 20 21 21 18
20 20 20 20 19 17 16 17 18 19 19 20 20 20 21 23 22 22 23 19 20 17 9 7 8 10 13 28 21 10 8 9 15 28 23 15 16 17 21 10 15 19 15 15 17 10 8 11 13 14 11 8 7 6 6 11 11 7 12 8 7 5 11 6 4 10 14 12 2 14 15 12 5 15 21 20 21 24 24 21 19 21 22 22 21 20 18 19
20 20 19 19 20 19 17 17 17 18 19 19 21 21 21 22 24 23 21 20 15 8 8 10 3 13 12 15 14 13 13 13 8 6 8 17 18 21 14 10 12 10 9 12 13 10 8 14 8 12 11 15 9 9 8 11 12 13 5 14 9 8 6 10 10 4 7 10 8 7 14 8 12 23 18 21 25 24 25 24 22 21 21 22 21 20 19 18
20 20 21 20 21 21 19 17 17 18 19 18 18 18 27 24 26 21 15 10 8 10 11 10 6 8 32 18 18 9 5 9 7 12 12 13 22 17 13 15 9 7 7 9 9 17 15 16 14 14 7 14 13 13 25 29 23 12 6 7 9 4 7 12 12 7 8 9 10 6 7 12 11 24 24 24 27 27 26 28 27 23 23 23 22 21 18 17
22 21 20 20 19 19 20 18 18 19 17 17 18 20 26 26 17 5 7 6 8 5 7 17 16 17 10 9 17 13 17 9 11 7 10 12 11 15 12 11 6 5 7 16 13 15 13 10 8 10 28 24 25 20 16 5 12 10 8 10 7 9 8 10 12 7 13 8 15 8 13 16 11 19 19 21 24 26 23 21 20 20 22 22 21 19 18 18
22 21 21 21 20 20 19 18 17 16 17 12 13 19 15 9 4 7 5 8 14 16 8 13 25 13 21 26 11 8 9 9 9 9 9 12 17 11 12 11 8 9 9 17 10 20 12 20 26 33 22 13 8 12 11 8 7 6 7 7 10 10 9 7 8 7 10 10 16 12 12 12 15 22 19 20 16 17 21 23 21 21 22 24 21 18 19 17
23 22 20 20 21 20 19 17 16 12 13 9 11 15 13 7 7 11 8 16 20 18 22 14 24 23 30 21 8 16 22 18 6 10 11 10 8 19 14 13 11 11 11 6 15 8 14 18 30 14 8 11 10 10 10 9 11 12 7 6 12 11 13 11 14 8 9 14 11 9 10 8 13 17 24 20 23 22 25 21 22 23 22 21 22 21 19 17
23 22 22 20 20 20 19 17 14 11 11 5 9 15 14 17 7 6 8 18 13 23 22 24 17 21 30 30 21 8 10 16 24 19 17 16 14 26 10 19 13 20 6 9 8 17 28 36 15 7 9 10 9 12 14 14 12 12 14 10 6 14 14 11 10 7 10 14 16 8 11 6 6 20 20 28 28 26 20 27 29 29 22 20 20 21 21 20
23 22 20 21 21 19 18 17 13 9 8 8 10 12 22 17 11 10 7 19 27 21 22 23 21 25 37 31 17 9 14 19 19 14 11 15 14 22 16 19 15 12 13 12 25 19 21 23 12 11 10 11 10 12 12 13 13 14 9 11 19 9 8 12 10 7 9 21 13 10 14 10 12 12 14 10 19 21 15 15 18 14 24 23 21 19 23 21
23 22 21 21 20 19 17 14 9 8 9 13 15 20 17 9 9 10 12 13 19 22 24 28 27 23 31 28 21 23 19 18 15 21 13 20 21 16 17 17 13 15 23 19 19 20 14 6 12 14 12 13 15 13 14 16 20 17 13 12 13 15 9 9 7 10 9 20 13 18 16 12 9 19 12 12 21 23 21 24 18 23 16 20 21 18 17 21
22 21 21 21 19 18 15 11 10 12 7 8 16 24 22 22 17 8 6 13 15 27 15 23 22 22 34 11 11 22 16 18 17 15 9 14 18 23 24 16 19 23 18 14 11 18 17 9 20 16 16 16 15 18 24 19 16 21 17 16 16 10 6 5 7 6 9 20 10 18 13 10 10 10 21 18 20 19 17 21 22 23 22 22 23 19 17 16
22 21 20 19 18 16 11 10 8 4 8 16 14 9 9 11 13 15 9 8 18 14 7 11 25 22 23 14 19 16 11 21 15 23 15 10 12 19 20 25 31 28 20 13 18 25 15 7 20 23 20 19 19 20 14 17 22 16 27 16 16 14 6 3 4 7 11 21 17 8 21 14 8 8 10 19 22 23 22 22 26 24 22 21 19 18 16 17
21 20 19 18 18 13 7 16 2 9 12 13 6 14 18 19 10 20 13 11 12 14 12 6 14 20 24 20 26 17 11 21 15 12 16 18 21 20 25 18 18 14 17 17 18 33 21 19 19 20 21 22 23 26 25 25 19 34 12 17 15 11 8 7 6 6 13 11 7 8 18 25 15 15 10 20 29 28 28 28 24 21 18 16 15 15 15 17
20 19 19 18 18 13 10 6 10 11 14 16 18 17 22 17 8 12 8 8 20 10 10 9 18 12 8 23 22 26 12 7 23 17 17 13 15 27 27 21 21 18 18 20 30 11 17 17 18 22 22 25 31 27 10 17 34 25 8 14 11 12 10 9 8 9 11 4 14 8 12 22 18 16 14 22 28 27 32 26 24 21 19 18 17 17 16 15
20 19 18 18 17 19 13 7 4 15 10 12 18 22 20 17 7 12 8 9 14 12 14 15 13 8 11 21 21 17 19 3 8 12 13 13 19 16 29 16 13 12 11 21 19 10 19 16 18 17 23 31 17 9 15 21 27 9 11 10 9 9 9 12 14 13 8 10 14 15 18 24 11 11 19 16 24 32 32 27 22 24 23 20 20 17 17 16
20 19 18 16 12 10 8 4 14 17 13 15 18 20 20 8 8 8 11 14 8 7 6 7 13 10 18 21 18 18 18 10 8 16 18 22 22 15 14 10 14 18 20 17 17 11 11 13 15 24 30 23 9 10 15 14 11 7 11 10 6 6 8 7 12 14 7 13 24 17 18 25 23 21 24 30 35 30 25 23 19 20 18 17 16 18 18 17
19 18 18 14 11 8 8 8 12 8 10 11 18 22 11 6 12 12 10 21 15 8 8 6 5 17 21 19 17 18 16 14 7 15 20 17 21 17 15 20 11 16 16 15 21 19 14 17 25 24 15 17 12 17 14 16 12 10 16 15 8 7 3 5 11 6 18 23 19 18 23 24 30 21 19 13 16 36 34 28 27 24 21 19 16 18 18 17
17 18 17 15 14 7 14 10 4 9 10 14 19 12 8 14 9 16 21 9 11 12 8 8 7 9 18 15 17 24 22 9 10 11 19 23 19 28 29 21 32 27 25 24 24 14 23 20 19 14 13 19 23 18 17 18 17 19 15 14 18 16 18 19 12 17 26 34 14 17 15 17 21 12 21 19 24 25 28 32 30 28 23 20 18 18 17 17
17 16 16 16 14 11 14 12 9 10 9 10 14 8 11 12 21 18 14 10 10 10 10 8 11 14 8 13 16 18 13 12 6 8 8 14 20 20 9 17 15 21 25 18 10 17 20 14 13 21 13 22 22 30 22 23 27 26 29 21 23 22 24 23 20 17 14 14 6 20 16 21 6 6 8 26 25 21 18 17 22 25 25 23 21 19 18 16
13 12 10 10 13 14 8 4 5 7 9 11 10 9 10 13 18 10 14 6 10 11 8 11 19 12 8 24 15 18 17 16 8 14 6 13 20 25 18 15 14 17 11 13 29 27 22 27 33 24 32 21 30 31 25 21 24 32 19 19 15 18 28 28 23 31 23 14 10 6 31 17 11 9 6 16 20 17 21 21 19 20 22 21 20 19 19 17
7 7 4 5 9 10 8 7 6 3 5 8 12 15 17 19 6 6 5 7 10 13 12 17 14 6 5 8 9 20 21 25 14 6 11 13 21 24 23 23 14 12 11 24 18 19 24 31 15 22 7 20 23 21 20 11 9 18 14 14 12 28 16 17 18 16 12 10 11 12 14 6 8 7 16 19 21 21 22 22 22 22 21 21 22 21 19 18
6 5 4 9 9 6 8 8 5 9 4 11 14 13 18 14 13 5 7 8 8 14 20 18 5 6 5 4 8 18 17 13 12 12 9 10 11 21 12 18 26 18 21 28 15 21 19 33 8 15 16 18 25 18 24 20 32 22 21 29 31 12 13 8 4 3 9 16 9 7 10 9 6 11 16 20 22 21 21 20 21 21 21 19 19 18 17 17
8 6 6 7 13 9 10 9 10 12 7 11 10 16 13 12 8 8 9 12 9 12 12 13 8 7 5 7 8 17 19 10 9 19 14 6 15 21 22 17 12 17 11 17 10 12 21 16 9 15 23 21 23 19 18 23 17 18 28 25 9 7 9 17 17 8 11 20 14 7 15 15 18 20 12 20 22 19 23 19 20 20 20 21 18 17 17 17
3 6 14 15 13 11 12 11 10 8 9 9 16 11 7 13 4 11 9 14 11 10 11 8 7 6 5 7 5 7 15 18 9 19 12 13 20 16 17 26 17 18 17 10 10 11 7 9 17 15 15 17 16 22 19 17 17 17 24 14 30 22 20 15 15 13 14 17 15 10 11 17 13 19 21 26 26 20 21 20 21 20 20 20 20 19 17 16
4 7 11 4 13 10 13 15 11 12 8 13 12 23 9 13 6 15 12 14 15 10 13 6 4 6 6 6 6 13 14 25 10 13 17 17 17 20 24 18 15 17 16 16 21 15 8 13 11 13 17 18 18 21 28 24 18 16 11 22 15 15 20 19 25 12 19 11 13 11 17 19 15 17 24 31 33 27 26 23 20 20 19 21 21 19 19 17
4 5 7 6 14 4 14 14 13 10 8 11 11 17 5 10 12 12 14 15 11 10 10 6 6 5 8 10 8 6 5 8 15 13 13 11 20 9 24 19 16 22 20 14 16 9 12 6 11 13 14 20 26 26 26 26 26 22 17 14 21 25 8 14 10 14 16 23 18 20 20 16 10 17 19 27 31 32 32 28 23 21 18 19 19 19 17 17
4 4 7 7 14 7 16 13 12 13 8 6 7 9 9 13 11 13 14 13 18 13 15 11 7 8 7 11 11 6 6 3 11 11 15 9 21 15 17 20 15 17 23 18 17 10 13 8 15 12 12 27 18 19 20 21 19 17 22 19 19 23 15 26 21 9 13 21 22 23 22 10 9 8 21 20 22 23 23 23 22 20 19 19 21 19 19 17
4 7 6 6 11 10 18 18 15 6 9 6 11 11 13 10 16 20 22 19 18 21 13 17 12 14 10 12 12 10 5 5 5 5 8 11 9 14 10 12 16 12 26 28 24 9 15 8 8 14 11 18 19 11 14 15 13 17 22 20 12 11 17 17 23 12 11 7 12 11 19 15 6 4 19 20 22 24 22 22 21 20 20 18 20 20 17 18
6 9 4 5 8 9 14 10 6 10 10 10 8 15 16 21 19 19 20 18 19 14 12 14 14 10 12 15 11 10 7 9 6 7 7 5 7 18 9 16 15 14 17 23 16 13 10 20 9 14 9 13 14 12 11 16 16 8 18 13 14 13 13 19 18 15 17 8 10 6 12 10 4 10 19 19 19 19 21 22 23 19 18 18 18 18 18 15
8 9 8 5 6 10 14 16 15 11 14 9 11 16 11 17 17 18 18 17 16 9 14 13 9 19 11 15 15 11 6 8 4 3 7 4 10 9 12 12 18 20 20 15 25 13 27 13 12 14 11 12 14 11 9 5 20 19 17 14 15 14 8 6 11 6 19 16 16 20 16 11 13 21 21 22 23 21 21 20 26 23 18 18 18 16 16 17
13 9 7 5 9 14 20 8 4 9 11 11 13 15 16 17 16 22 22 23 18 18 14 17 19 10 12 10 15 10 13 7 8 6 4 3 9 6 7 11 15 13 15 12 13 15 18 8 16 15 18 16 18 26 22 16 20 17 12 17 14 17 12 10 16 12 17 8 6 18 14 7 16 23 24 25 24 22 19 19 21 26 21 19 16 16 17 19
7 11 6 6 11 16 12 6 7 4 6 7 9 18 16 19 19 16 20 28 25 22 24 22 13 10 12 14 11 8 7 4 10 8 5 7 7 10 7 15 11 11 14 15 22 20 20 10 10 14 16 16 13 11 9 12 14 24 14 18 15 9 12 10 13 15 19 10 9 5 27 24 24 24 26 26 28 25 24 23 25 24 23 19 17 17 19 20
8 6 7 8 9 8 10 9 9 7 7 6 8 7 9 14 14 18 16 17 15 28 26 22 16 9 9 13 9 4 5 5 5 7 7 6 5 8 12 10 7 10 14 22 21 19 14 18 10 8 12 16 10 8 12 8 18 13 13 10 8 14 12 12 18 17 14 24 8 7 27 36 23 24 24 25 26 24 22 22 22 22 21 21 18 18 17 21
8 5 4 6 10 14 15 15 16 12 12 9 12 10 12 14 13 11 14 19 17 10 10 7 16 16 12 16 7 7 3 3 3 6 3 3 6 10 16 8 6 16 16 19 23 19 20 23 8 7 8 6 10 13 13 11 7 7 5 10 14 12 13 14 10 12 21 21 23 23 25 32 31 32 35 35 35 34 31 26 22 21 21 19 21 21 21 21
6 9 8 7 7 7 13 5 9 13 13 11 13 10 16 13 17 15 11 14 12 8 3 4 5 10 11 7 6 7 4 7 6 4 4 5 4 8 10 11 10 20 15 14 17 18 21 16 7 8 6 11 13 11 12 16 8 14 15 13 6 11 15 12 11 19 15 14 29 36 30 28 31 32 29 26 22 26 24 22 22 23 24 22 22 20 21 21
9 8 7 7 7 8 10 8 7 8 12 14 12 11 13 12 16 16 12 11 9 10 5 2 6 7 4 6 6 8 8 8 4 4 2 3 8 6 4 4 11 18 15 22 14 13 26 21 10 9 9 8 11 11 12 14 14 16 13 18 19 13 11 7 14 11 23 19 22 27 22 18 7 16 22 21 23 24 25 24 24 23 23 24 23 21 19 19
6 7 7 9 10 7 9 8 10 11 11 8 16 13 10 14 16 9 8 7 9 9 6 3 4 7 4 3 3 7 16 13 12 12 6 4 4 4 7 9 8 14 17 11 15 16 23 14 9 9 11 11 7 10 8 15 18 17 14 22 21 14 12 6 18 8 15 23 26 23 22 15 15 20 21 22 25 29 30 26 24 23 23 23 23 21 20 19
12 9 10 8 8 8 6 7 8 8 12 10 15 10 10 5 8 12 14 10 13 11 9 7 6 4 4 3 8 12 16 18 19 13 8 10 6 5 5 8 10 8 7 8 4 25 20 21 14 9 15 14 11 10 12 9 11 9 11 15 14 5 3 7 8 9 19 40 30 28 26 27 32 32 31 25 26 26 27 26 25 23 22 24 24 23 20 19
Wind_Speed
11 12 12 12 12 12 12 13 13 13 14 13 14 14 14 14 15 14 14 15 14 15 14 15 15 15 16 16 17 18 15 9 13 7 4 16 6 14 10 8 2 3 7 1 1 1 2 0 1 1 2 3 1 1 2 2 1 2 1 2 5 5 3 4 6 5 2 3 6 12 6 8 3 3 4 12 11 10 9 9 7 14 11 14 14 16 16 14
11 11 12 12 12 12 12 13 14 14 14 14 13 14 14 14 14 14 14 14 14 14 15 14 15 15 15 15 17 16 12 8 11 12 18 7 11 15 16 15 10 5 7 1 3 3 2 0 2 1 3 2 0 2 3 2 3 3 1 2 8 4 5 3 2 5 3 6 8 8 8 4 3 2 1 7 4 11 11 7 11 14 15 15 16 15 17 15
11 11 12 12 12 13 12 13 13 14 14 14 14 14 14 15 15 15 15 13 14 14 14 14 13 15 16 15 16 14 11 9 5 9 13 8 23 19 18 15 17 11 4 1 3 5 4 2 3 3 0 2 0 4 1 2 4 5 3 6 7 4 3 4 5 6 4 6 7 8 10 8 4 1 1 6 7 5 16 12 12 14 17 16 15 16 14 14
12 12 12 12 12 13 13 13 14 14 14 14 15 14 14 15 15 15 14 14 13 13 14 14 13 14 16 16 16 8 5 4 4 5 1 10 9 16 20 18 16 10 5 4 2 5 4 0 1 4 1 2 1 0 1 4 3 2 3 7 3 4 5 7 7 9 9 1 4 5 7 5 4 4 5 10 12 0 4 15 21 18 18 18 16 14 13 13
12 12 12 12 12 13 13 13 14 14 14 14 15 14 14 15 15 14 14 13 14 12 13 14 14 14 16 16 15 4 5 2 2 1 7 14 13 9 16 20 15 7 8 3 2 1 3 3 1 1 2 3 0 1 3 2 3 2 9 1 3 1 3 8 7 8 5 1 3 5 6 5 5 2 10 16 13 10 13 12 14 22 21 22 20 16 13 14
12 12 12 12 13 13 14 14 14 14 14 15 15 15 15 15 15 14 14 13 13 13 12 13 14 14 15 16 9 1 1 2 1 1 13 15 18 16 11 16 12 8 7 4 3 3 4 0 1 2 1 1 4 5 3 4 2 5 4 3 4 5 6 3 5 5 1 2 4 6 4 2 0 4 2 2 1 2 6 5 8 19 19 17 17 17 14 14
12 12 12 12 12 13 14 15 15 15 15 15 16 15 15 15 14 14 14 14 12 12 13 13 13 14 14 11 7 1 3 9 2 4 16 16 19 21 3 8 12 9 7 5 5 4 4 3 4 2 3 2 3 4 6 0 3 6 6 0 4 4 7 7 10 10 7 5 8 2 4 1 1 7 1 4 2 8 11 13 13 13 13 15 15 15 16 14
12 12 12 12 12 12 13 14 15 15 16 16 16 15 15 15 14 13 13 13 12 12 12 12 12 12 11 5 5 3 1 10 6 5 14 17 17 17 10 5 9 8 8 9 8 5 4 6 7 2 1 7 3 6 1 3 1 5 4 2 5 5 6 8 9 9 8 9 7 2 2 0 0 2 3 3 7 10 14 15 15 15 13 10 10 13 11 11
12 12 12 12 12 12 13 14 14 15 16 16 16 16 16 14 14 13 14 13 12 12 12 12 12 11 9 2 2 5 10 5 5 8 13 15 14 14 8 4 1 10 5 4 4 5 5 5 4 4 5 4 2 1 1 2 5 5 5 2 4 5 6 7 6 8 9 6 2 2 2 4 8 10 8 2 6 11 15 14 15 14 13 11 10 10 10 10
14 12 12 12 12 13 13 14 15 15 15 16 16 16 15 14 14 13 13 13 12 11 11 11 11 10 7 4 3 2 7 5 4 9 13 16 16 13 10 7 6 1 5 4 3 5 6 5 8 4 2 2 2 5 3 5 5 2 3 7 9 10 5 4 6 7 6 4 1 2 3 6 2 5 1 2 8 13 14 14 12 14 14 12 10 9 9 11
15 14 13 10 11 13 13 14 15 15 15 15 15 15 15 14 14 14 13 13 12 12 11 11 10 8 4 3 2 9 2 4 3 10 15 16 16 10 9 8 5 4 3 3 6 7 6 3 2 1 1 4 0 3 3 4 3 3 4 3 5 7 5 5 3 7 3 5 3 7 7 2 1 2 9 8 9 13 17 14 13 12 12 11 12 11 9 9
15 14 13 12 11 12 13 14 14 14 15 15 15 15 14 14 15 14 14 13 13 12 11 11 11 4 5 8 10 14 3 5 11 11 12 13 10 8 8 7 4 4 1 3 5 8 6 4 1 1 4 1 3 0 3 2 2 4 2 3 7 5 5 3 6 6 1 5 2 5 5 1 1 6 9 13 12 11 14 14 12 11 11 13 12 10 9 11
16 13 15 13 12 12 13 13 14 14 14 15 15 15 15 15 15 16 14 14 12 13 13 12 8 2 5 10 16 18 16 20 17 14 14 6 9 10 7 7 5 5 5 5 5 4 5 4 2 2 3 1 1 1 2 2 3 4 0 3 3 3 6 7 3 1 5 4 1 7 2 4 3 6 10 13 13 12 11 12 11 9 11 11 9 10 10 8
14 16 15 14 13 13 13 13 14 14 15 15 14 15 16 16 16 16 16 15 15 13 12 11 3 2 8 11 9 6 8 11 11 12 15 9 5 9 4 6 5 5 4 6 9 5 3 4 6 5 2 1 2 3 7 3 1 1 3 1 2 1 4 4 3 5 6 3 1 5 4 4 1 8 11 12 16 18 12 12 12 10 8 6 10 9 9 7
13 15 16 15 14 12 12 13 13 14 14 15 15 16 16 17 16 17 17 15 14 12 12 8 1 2 5 9 10 16 21 13 12 17 15 5 5 8 10 2 1 3 4 8 4 3 5 6 5 3 3 3 4 3 5 1 2 0 1 6 3 4 6 8 2 7 8 2 1 4 2 3 5 10 11 10 10 15 14 12 12 11 9 8 8 8 8 8
15 13 15 16 16 14 13 12 13 14 13 15 15 15 16 18 17 16 17 14 15 13 5 1 2 4 3 10 3 5 1 3 9 13 7 6 4 8 3 4 6 7 4 4 7 3 5 6 5 5 1 0 2 2 1 3 2 1 5 3 1 2 5 3 2 7 10 3 1 3 4 5 1 6 10 10 12 13 15 13 10 11 12 10 10 9 8 7
15 15 15 14 15 16 14 13 13 13 14 14 15 15 15 17 18 17 15 16 8 4 3 2 1 6 3 5 5 3 3 6 5 0 3 9 11 10 1 3 2 5 5 3 3 4 2 5 1 2 3 5 4 3 2 6 5 3 1 5 3 3 2 2 3 3 4 4 3 0 1 2 7 9 9 8 11 13 14 13 12 9 8 9 8 8 9 9
16 15 16 16 13 16 16 14 12 13 14 13 12 13 15 19 20 17 11 6 3 3 5 5 2 3 11 5 6 5 1 5 2 4 6 4 13 7 4 2 3 2 4 3 1 4 3 4 3 6 3 7 6 6 10 13 9 5 2 3 1 1 3 5 4 2 4 1 6 2 1 1 8 11 11 14 9 14 15 15 13 11 11 11 9 9 10 10
17 17 15 15 15 13 16 15 13 13 11 9 12 15 20 20 8 2 3 2 3 1 0 5 6 6 2 3 6 5 4 5 5 3 3 6 3 3 2 0 1 1 1 3 2 8 2 1 2 3 12 11 13 11 8 2 7 7 5 5 3 4 3 2 4 2 8 3 4 5 6 2 7 11 11 13 14 15 14 13 11 11 12 11 10 9 10 10
17 17 17 15 16 15 15 15 14 13 7 4 4 7 4 4 1 0 2 3 6 8 2 7 13 5 14 8 2 2 4 3 4 3 2 3 8 6 3 3 1 2 2 6 3 8 4 8 11 16 11 6 4 8 7 3 5 4 4 3 4 4 4 3 3 3 2 4 6 6 3 5 10 12 12 12 6 6 12 15 11 12 12 11 11 11 10 10
17 17 16 14 16 16 14 13 13 9 2 2 2 6 3 2 3 2 2 8 12 12 15 8 15 14 12 5 2 9 9 4 1 4 4 2 4 10 4 6 3 4 5 3 6 1 8 7 14 6 5 7 7 7 7 6 6 3 2 3 5 4 5 4 4 1 3 4 1 5 6 4 9 10 13 12 15 13 14 12 13 15 11 10 12 13 11 9
17 17 17 16 15 15 14 13 12 7 5 3 2 5 5 7 3 0 1 5 6 15 15 17 10 12 14 15 10 4 4 4 13 8 4 7 4 11 3 8 6 10 3 3 4 4 11 15 3 5 6 7 6 9 9 9 8 5 5 2 1 5 2 7 5 2 0 3 2 4 6 1 2 6 11 16 18 14 10 5 16 15 12 11 11 11 12 11
17 17 16 14 16 15 14 13 11 2 1 0 1 4 8 8 6 5 3 7 12 11 12 14 12 16 19 11 5 5 7 8 8 5 2 6 4 9 8 8 9 6 5 7 13 9 9 8 8 7 7 7 4 8 9 8 6 7 4 5 6 2 3 3 5 1 0 3 2 4 7 3 3 4 3 3 2 3 7 2 6 4 14 15 14 13 15 12
17 16 16 15 15 14 12 12 2 1 2 4 6 10 7 3 5 5 5 4 6 8 12 14 17 11 16 11 6 13 10 4 6 8 4 3 6 4 6 10 8 7 11 12 9 9 5 3 6 10 7 8 6 5 9 8 8 3 6 4 2 3 2 4 2 3 0 3 8 8 7 2 5 5 2 3 7 9 7 11 1 9 5 9 9 8 8 12
17 15 17 15 14 14 12 7 4 5 2 2 6 8 8 11 8 5 2 4 3 8 5 7 7 9 5 4 5 9 7 3 8 4 2 6 5 7 5 3 5 11 10 6 4 3 5 4 7 9 9 7 7 7 11 9 6 5 4 6 5 3 4 2 4 4 4 1 2 8 1 1 4 2 3 6 5 6 6 6 10 1 7 8 11 10 8 8
16 16 16 14 13 11 6 2 3 1 0 5 5 2 3 4 7 6 3 1 6 3 2 3 8 6 7 4 7 7 7 6 9 11 4 4 5 3 3 5 3 11 6 7 6 3 3 2 6 12 9 10 9 7 5 9 7 4 6 10 6 4 4 2 1 3 1 1 2 1 7 2 3 4 5 7 9 8 9 9 10 9 6 8 7 8 10 10
15 15 14 13 14 7 2 4 0 0 3 3 3 6 7 7 5 8 2 2 3 3 5 1 3 2 5 10 12 9 3 7 7 7 8 6 5 4 7 3 4 1 3 2 2 8 7 8 4 6 11 10 10 11 7 11 7 4 3 12 8 5 5 2 1 1 2 3 3 1 4 6 4 7 6 10 12 13 11 10 14 9 10 7 5 6 8 8
15 14 13 14 14 8 4 1 1 1 4 6 7 7 10 5 4 2 1 1 3 3 3 2 5 4 1 9 12 10 4 1 7 5 9 6 3 5 5 6 5 6 5 5 15 2 10 5 8 7 8 10 14 7 5 9 7 3 4 10 8 8 5 3 3 2 1 0 6 4 1 3 5 5 8 12 10 11 15 13 13 12 10 10 8 7 8 8
13 13 13 13 14 12 8 2 1 4 1 4 8 8 6 8 2 3 2 1 2 2 2 4 4 2 3 8 7 9 1 1 1 5 7 3 7 2 7 4 4 6 2 8 7 1 4 9 10 7 7 11 4 5 8 11 5 2 7 7 5 5 5 7 5 4 0 1 7 7 6 4 2 3 9 10 12 16 14 12 11 16 17 13 11 10 9 9
13 12 12 12 9 5 3 1 5 3 3 7 6 7 6 1 2 1 3 3 1 1 0 1 2 4 7 10 5 6 3 2 1 5 4 4 4 3 1 6 3 4 4 1 3 6 1 5 10 7 8 3 4 6 6 9 5 4 7 5 1 3 4 1 2 3 3 3 12 11 10 7 4 7 11 11 11 15 14 10 8 13 11 10 9 10 10 8
12 14 13 6 4 2 3 2 4 3 5 3 6 4 1 1 3 2 1 5 4 2 2 1 1 9 9 11 6 4 4 1 2 6 6 5 4 4 4 4 1 2 2 2 4 7 8 2 6 4 6 4 7 4 5 9 7 6 4 4 3 1 1 1 0 2 4 7 11 7 11 6 8 3 7 4 5 14 17 16 13 15 13 11 9 10 9 10
12 13 11 5 6 2 6 3 2 0 1 1 3 4 1 4 2 4 6 4 1 4 2 2 3 2 4 3 4 10 7 2 2 3 8 8 6 9 9 8 10 8 10 11 10 4 10 9 2 1 7 12 6 6 3 8 8 8 6 8 8 3 3 3 2 4 10 11 3 7 8 2 8 2 10 10 9 14 10 14 16 16 14 12 11 10 9 8
11 10 10 8 5 5 4 0 2 3 4 3 2 2 3 3 5 6 4 4 2 3 3 2 4 4 4 4 3 7 4 3 2 2 5 5 8 8 4 5 6 6 6 4 4 7 7 5 5 5 4 8 9 11 6 8 10 12 10 9 10 6 6 7 7 1 3 5 1 1 10 6 1 2 5 14 11 14 12 7 8 12 13 14 11 10 10 8
8 6 3 3 5 5 2 2 2 4 4 4 1 2 1 3 3 2 3 2 3 4 5 2 9 6 5 8 4 6 4 2 4 3 3 4 9 10 8 8 9 5 5 7 9 11 7 8 15 10 7 8 10 11 9 2 9 8 3 6 6 3 4 6 4 10 8 5 4 2 6 3 4 3 4 7 10 10 14 11 8 8 9 10 10 10 12 9
2 2 1 2 1 3 4 3 1 1 1 2 1 4 4 4 3 1 2 3 3 6 7 9 4 1 1 3 1 4 3 2 2 3 4 6 9 8 10 10 6 6 3 10 4 2 15 8 2 11 2 7 9 5 6 5 4 4 5 6 4 12 7 5 4 3 2 2 3 1 2 1 2 2 3 8 12 12 12 11 12 10 9 11 10 10 10 9
3 2 0 1 1 2 4 2 2 2 1 1 4 3 5 3 2 2 1 4 3 6 11 11 2 2 1 1 1 4 5 1 7 1 0 5 4 8 6 4 7 10 5 7 3 6 4 9 1 2 9 5 10 6 6 9 8 5 8 10 14 4 3 3 1 1 4 5 0 0 1 1 1 3 6 11 14 14 12 12 13 12 11 11 10 9 10 9
3 2 1 1 1 3 5 4 4 4 3 3 3 3 2 2 2 2 4 5 3 7 6 6 3 3 2 1 1 5 3 2 1 4 2 2 1 4 8 6 5 6 6 7 2 3 9 4 1 3 8 9 3 7 6 9 6 6 7 10 3 5 1 2 4 0 1 6 2 1 4 5 6 3 4 8 10 3 10 12 14 11 11 11 9 9 9 9
1 2 2 3 3 5 6 5 6 3 3 2 4 2 1 1 1 3 4 7 2 5 3 3 2 4 2 3 2 1 3 7 2 4 3 2 2 4 7 5 6 8 6 2 3 2 2 2 5 8 5 6 5 2 4 6 8 9 12 6 8 7 8 4 1 2 2 3 2 3 5 3 6 6 9 11 10 8 12 11 15 13 11 11 9 10 9 10
1 2 3 0 1 2 5 8 4 5 2 4 3 2 2 2 1 4 3 3 2 3 2 2 0 2 3 3 3 3 3 6 3 3 4 2 2 3 6 5 4 7 9 7 4 1 2 3 3 4 9 4 6 6 8 9 8 8 7 9 7 5 7 6 5 3 6 3 4 3 6 4 5 3 14 17 17 14 15 16 13 12 11 11 10 10 10 10
2 1 2 1 6 1 8 7 5 3 1 3 2 3 1 2 2 4 3 2 1 1 3 3 3 2 2 3 4 3 2 4 5 4 3 1 5 2 6 8 4 7 10 7 3 2 1 1 1 4 4 7 7 6 12 11 11 6 6 5 5 5 1 4 1 3 6 7 4 6 5 4 4 7 11 17 20 21 20 17 13 12 11 12 12 11 10 10
1 1 1 3 8 3 9 6 4 4 2 1 3 2 3 3 5 5 6 7 5 4 6 6 2 1 2 5 5 2 2 0 3 3 3 2 8 1 4 6 7 9 5 5 8 2 1 1 6 1 4 10 8 6 9 7 9 7 7 8 10 10 5 13 8 2 3 7 5 7 6 1 3 3 11 11 11 12 12 15 13 13 12 12 12 12 12 10
1 2 1 2 4 6 6 7 2 0 0 0 1 0 1 3 4 5 5 4 5 4 7 7 7 4 3 5 4 3 2 2 1 1 1 5 3 3 3 9 8 8 9 6 7 3 5 2 1 1 4 5 9 4 4 10 8 9 11 8 6 2 6 4 8 4 3 1 4 3 5 6 2 2 9 11 13 15 14 14 12 12 12 12 12 12 11 11
1 3 1 1 2 3 4 2 1 1 2 2 4 6 5 5 3 4 6 3 3 6 5 4 5 4 6 5 3 5 4 2 2 2 3 3 3 10 3 8 8 8 10 4 4 4 6 3 1 4 4 6 5 5 5 6 10 5 8 6 6 4 5 7 6 7 6 2 4 1 1 2 1 1 8 9 10 12 12 14 14 11 10 11 11 11 12 10
2 3 2 0 2 4 2 2 4 2 2 4 3 6 4 4 5 7 5 4 2 4 2 3 4 10 4 4 3 2 3 1 2 0 0 1 1 5 5 8 7 4 9 5 7 4 3 2 3 2 3 4 7 4 1 1 6 5 5 5 8 7 5 2 6 2 6 8 9 8 6 4 4 6 8 13 12 13 14 13 17 14 11 10 10 9 10 10
4 2 1 0 3 3 3 2 1 2 3 2 2 4 4 2 5 9 7 6 6 7 3 6 8 3 4 1 2 2 8 3 1 2 1 0 1 1 5 0 8 5 6 7 10 7 5 3 5 4 4 4 4 4 4 5 9 4 5 9 8 12 8 4 5 3 6 3 4 6 4 1 6 10 12 14 13 12 12 12 13 16 13 11 9 9 10 10
2 3 1 2 2 3 3 2 3 1 3 3 3 5 5 5 4 5 6 10 12 11 11 8 7 5 2 2 1 3 3 1 4 2 2 2 1 2 4 4 8 5 6 11 12 9 4 2 4 7 7 6 5 4 4 4 4 8 7 11 8 6 8 5 6 5 8 4 3 1 7 14 13 14 14 16 15 15 15 14 15 15 15 12 11 10 10 11
1 1 1 3 3 2 3 2 3 2 1 2 2 1 3 5 3 5 9 6 9 12 7 10 7 4 2 2 4 2 1 0 2 1 2 2 1 1 7 6 2 2 10 8 12 7 3 4 3 5 5 5 4 4 7 4 9 7 8 6 5 9 7 8 6 6 6 12 3 1 11 19 16 17 16 16 15 15 14 14 14 13 13 13 11 11 12 12
2 1 0 1 2 5 5 6 7 6 6 4 3 2 3 4 3 3 4 10 11 3 3 1 6 10 8 10 3 1 0 0 1 1 1 1 1 4 2 2 2 9 1 6 10 4 6 4 1 3 0 2 4 5 7 3 2 2 3 7 10 7 9 8 5 4 11 8 10 12 15 16 17 21 23 22 22 21 20 17 14 14 13 12 13 14 13 14
2 2 3 3 2 1 6 1 5 8 8 6 3 3 7 6 8 6 4 3 2 3 1 2 2 7 8 4 2 1 1 1 1 1 0 2 1 2 2 3 1 7 6 4 5 3 4 2 1 2 0 4 6 6 5 2 2 6 6 5 1 8 11 8 4 7 9 2 12 20 20 14 16 19 18 15 12 15 13 13 13 15 15 15 15 14 14 13
2 2 2 1 3 3 3 2 1 4 6 6 4 6 4 6 8 7 5 4 2 5 1 1 3 3 1 4 4 3 4 4 2 1 0 1 2 0 0 1 3 5 5 2 2 4 8 2 3 3 1 3 4 6 3 4 5 8 5 8 7 2 4 4 7 5 7 9 4 18 12 7 3 9 11 12 13 13 14 15 15 15 15 16 15 14 13 13
1 3 2 3 4 2 3 3 4 5 3 3 6 5 4 8 10 5 3 3 5 4 2 2 3 4 2 1 1 4 4 3 3 5 3 2 1 2 1 2 2 3 5 2 0 3 7 1 4 3 2 5 2 2 3 5 8 10 6 10 10 5 7 2 7 3 8 10 15 11 10 5 6 12 13 14 16 19 19 17 15 14 15 15 15 14 13 12
4 3 3 2 2 2 2 3 3 2 6 4 6 6 3 3 3 2 4 5 7 8 2 1 1 1 2 1 6 5 3 3 5 6 5 6 3 2 2 2 3 1 1 1 1 5 7 7 4 2 3 5 2 3 8 2 5 3 4 5 6 2 1 2 3 5 6 21 14 11 12 12 17 18 18 16 17 17 17 16 15 15 14 15 15 15 13 12
Wind_Direction
313 318 316 316 317 318 320 320 319 318 318 321 319 320 320 321 318 320 321 320 323 326 323 322 323 322 322 324 325 324 334 332 313 312 281 243 207 238 243 230 85 216 178 157 332 36 319 47 220 293 91 123 227 120 229 117 163 75 170 135 252 205 194 218 206 181 223 298 309 330 338 356 311 1 96 80 54 81 90 78 61 53 66 96 106 119 123 130
311 309 312 315 314 315 316 317 315 314 316 316 320 319 318 317 317 314 319 319 319 323 328 326 326 323 325 325 325 332 339 313 299 282 246 222 200 223 235 235 220 138 101 109 176 167 133 301 245 143 138 156 291 181 146 250 139 157 186 147 234 188 237 192 226 263 337 298 309 312 322 31 241 150 177 102 124 112 84 78 90 96 94 95 110 122 129 138
306 307 309 310 311 313 312 310 310 313 316 315 316 316 318 314 315 316 316 317 316 320 324 327 330 325 325 326 324 343 336 314 291 262 272 239 229 223 222 223 230 199 184 171 200 158 160 194 200 127 255 124 315 182 153 249 151 223 151 235 239 204 245 270 272 274 261 279 309 326 316 358 245 246 104 127 127 121 130 129 119 125 125 122 124 133 134 141
302 304 305 308 308 310 311 310 311 313 313 313 314 315 314 314 314 317 314 318 317 317 321 324 328 329 325 326 331 335 9 289 270 240 323 315 232 230 230 226 220 186 158 215 163 169 186 124 109 146 94 182 274 169 154 243 148 255 168 218 231 214 244 263 245 249 260 215 286 295 317 348 295 222 138 136 111 135 226 163 148 146 138 134 136 137 139 144
300 303 303 303 307 307 309 309 310 311 311 312 311 309 313 312 313 315 317 315 318 319 321 324 327 326 328 326 330 353 306 352 256 135 4 358 343 268 219 222 215 158 167 150 125 191 128 143 82 105 113 204 11 78 240 238 211 120 226 194 191 279 251 255 257 264 265 21 333 322 356 310 313 111 156 156 144 198 193 201 154 141 141 144 146 148 144 149
296 297 300 302 303 306 306 307 308 308 310 309 308 312 313 312 314 314 315 313 315 318 318 322 323 329 327 333 320 309 227 171 328 15 355 6 0 349 216 212 188 146 150 170 178 159 129 76 105 131 163 117 198 179 265 193 147 244 273 211 209 229 242 274 263 262 55 343 303 312 287 339 256 173 218 7 7 110 95 105 146 141 144 139 136 140 145 150
288 293 295 300 301 304 305 307 308 309 308 307 307 309 311 310 313 313 312 316 315 319 320 323 324 324 336 334 310 170 221 282 328 287 7 15 6 2 358 169 154 141 149 155 188 155 177 142 143 208 113 146 265 190 250 336 185 225 250 35 281 204 235 263 271 279 287 275 270 242 346 61 275 151 292 72 51 97 99 114 116 120 123 130 134 145 146 148
283 285 291 295 299 300 305 304 306 307 308 307 308 307 309 310 307 311 316 312 316 314 320 322 323 326 346 342 344 335 325 250 268 344 9 16 12 360 32 92 135 140 147 184 172 185 141 151 177 149 148 153 220 174 240 230 227 229 257 240 259 261 247 257 258 273 273 271 258 72 249 298 308 197 63 34 96 102 109 116 120 125 125 120 127 135 139 133
279 280 283 289 294 297 300 303 305 307 308 309 306 306 308 308 310 312 310 311 311 317 316 319 321 326 346 283 314 320 248 245 323 9 11 6 5 357 17 41 130 143 179 164 185 164 132 217 182 180 212 207 222 187 241 137 289 229 233 273 275 272 268 258 290 275 264 273 293 71 102 118 112 79 49 62 102 112 117 117 124 126 127 128 131 130 130 122
282 279 279 284 290 294 296 300 303 305 306 306 307 309 311 309 309 307 306 307 307 312 312 320 313 332 328 314 298 266 261 327 6 6 359 355 348 354 6 23 12 199 144 200 134 146 183 205 177 217 94 237 207 228 166 168 236 189 207 230 239 253 284 283 233 265 265 253 177 125 164 149 182 75 352 64 131 123 120 125 132 135 132 129 126 122 119 118
288 282 282 280 287 289 294 297 302 305 308 308 308 308 309 308 307 306 301 301 304 304 311 306 319 321 333 19 240 236 278 12 13 349 342 342 335 349 341 336 343 353 257 192 178 180 202 156 158 76 109 222 60 274 155 223 224 263 248 280 269 268 259 258 277 269 319 291 174 141 185 155 332 90 161 150 146 137 130 134 137 135 133 126 126 124 117 108
277 281 278 276 280 284 291 296 301 305 306 309 309 307 305 304 301 300 298 297 300 302 302 307 297 312 277 256 235 227 345 304 311 323 325 329 314 305 294 290 275 261 283 253 224 203 194 175 120 37 192 59 244 266 247 266 359 270 262 284 280 305 295 227 220 243 215 267 245 119 74 17 337 155 151 142 141 140 134 138 139 132 128 129 127 119 118 121
279 279 279 273 275 280 287 294 298 302 304 306 308 307 304 301 298 296 297 297 296 298 299 298 300 241 292 268 239 254 292 290 300 311 304 290 288 282 264 262 244 234 229 236 250 228 202 146 136 220 254 346 217 157 270 341 302 355 78 171 303 332 307 263 202 274 189 251 249 119 216 263 286 149 141 145 142 136 133 139 137 134 133 133 125 118 117 142
283 276 273 275 275 279 284 290 297 300 304 307 307 305 303 301 298 296 294 293 296 297 297 292 294 243 243 256 279 252 253 268 286 293 275 278 301 291 299 263 250 242 228 238 249 244 164 165 162 221 330 209 254 309 347 352 338 185 253 100 210 144 262 279 184 193 192 273 305 123 189 277 258 152 152 154 153 144 144 146 140 133 128 124 118 120 134 131
283 282 276 274 275 274 277 287 293 297 303 304 305 307 307 303 297 293 291 294 294 296 293 298 239 311 261 274 268 266 244 253 268 253 246 254 224 308 280 327 176 208 218 222 233 184 167 162 154 193 241 240 232 311 305 27 349 262 49 257 323 164 278 289 291 162 189 285 60 140 211 204 179 160 160 156 151 142 139 146 143 133 140 139 125 126 120 130
287 283 277 276 272 270 275 281 289 298 298 303 304 306 302 297 293 288 285 284 290 288 293 288 207 187 296 287 254 327 78 141 245 246 248 187 220 222 251 11 314 297 287 248 203 209 158 157 183 176 187 315 165 130 1 5 324 345 157 270 217 133 242 343 240 206 188 162 15 161 193 93 196 184 159 151 145 145 140 144 144 139 145 132 129 130 131 131
299 285 278 272 274 274 272 275 285 291 297 301 305 302 301 293 284 279 278 283 279 264 230 248 174 184 258 225 334 295 242 225 242 21 139 194 184 213 54 338 324 324 319 294 184 158 207 171 204 128 175 193 150 122 178 264 275 267 20 195 205 168 235 231 299 275 224 139 197 262 122 213 173 172 155 143 155 147 142 145 147 139 128 125 129 135 142 144
301 295 288 281 276 277 274 274 279 289 296 303 314 309 298 288 277 278 278 264 238 214 220 219 235 254 256 272 282 238 315 303 196 204 188 187 195 193 167 188 262 306 317 325 103 150 179 201 162 198 131 188 159 163 182 216 194 167 159 146 258 231 196 209 161 245 133 302 158 189 127 355 155 164 153 152 180 153 155 154 149 142 136 137 142 145 145 138
306 300 290 282 278 275 276 276 281 287 302 328 321 313 291 280 284 201 223 164 132 133 98 201 168 162 218 202 246 302 274 231 281 213 234 140 202 171 169 192 42 42 320 149 264 157 166 165 130 137 207 190 199 191 183 186 140 169 167 173 159 177 223 210 246 268 157 136 191 154 190 168 167 164 161 161 167 166 165 149 140 135 139 141 143 145 140 131
307 301 296 288 277 273 276 277 280 288 318 351 353 326 328 46 40 219 175 196 223 208 236 155 200 270 315 289 200 225 273 260 313 262 209 159 120 153 163 138 136 133 186 188 168 193 120 184 196 207 205 184 151 176 162 192 149 155 168 158 196 184 269 275 273 253 148 108 197 187 124 152 172 169 168 158 147 168 154 156 147 146 146 143 145 143 133 120
303 303 298 293 283 274 268 275 278 286 344 86 26 358 319 336 37 323 346 234 228 238 251 228 192 215 232 275 345 7 358 317 237 300 274 174 140 134 208 137 147 188 206 180 155 239 146 204 224 200 153 170 168 148 159 204 238 176 163 173 230 177 231 244 231 266 185 147 303 122 120 179 176 176 162 151 156 188 172 161 150 148 141 141 146 141 131 127
299 300 299 295 284 274 271 269 272 287 96 104 45 297 263 251 232 152 89 293 260 232 233 240 221 243 252 258 271 328 331 311 313 290 273 167 198 176 201 165 165 193 152 197 124 157 200 216 175 153 168 143 146 155 166 181 208 226 205 199 225 258 249 283 281 342 298 118 273 133 125 233 207 178 166 161 176 179 173 161 156 148 138 146 145 137 133 132
297 297 298 297 291 282 272 265 280 91 77 65 249 224 253 252 269 252 238 278 275 242 222 224 227 232 249 256 242 170 200 218 250 278 244 147 193 211 150 168 173 165 178 192 188 177 209 216 170 156 134 139 150 167 169 185 197 195 194 185 211 236 157 277 289 23 169 136 194 121 100 7 57 56 62 4 43 124 114 95 350 91 145 147 149 145 142 137
294 294 294 293 286 281 271 277 297 311 193 229 233 224 236 291 272 321 324 253 293 265 196 210 204 213 232 213 201 182 182 216 177 268 212 172 179 156 157 178 152 167 199 197 199 189 196 147 161 151 154 160 171 175 168 179 215 208 184 169 170 204 226 157 240 349 18 44 114 94 57 12 344 140 106 65 50 25 31 107 19 336 91 126 119 122 136 139
292 293 289 292 287 277 273 286 275 235 202 211 241 252 256 255 261 255 254 287 251 273 200 235 177 235 243 114 125 166 209 251 216 225 203 160 180 155 218 138 144 204 194 169 176 205 244 254 141 156 170 177 162 185 195 162 209 234 213 173 189 154 196 300 340 21 24 4 284 132 37 319 289 307 174 147 123 101 51 68 98 352 311 135 133 135 137 130
289 288 290 292 295 283 275 249 253 187 213 243 241 243 241 277 264 186 152 345 291 259 108 266 144 255 127 181 142 175 127 236 204 223 205 201 195 191 137 197 178 193 165 136 179 205 196 211 171 169 174 187 195 201 194 164 197 173 249 161 192 167 161 140 324 62 74 147 277 125 164 243 323 216 188 158 144 126 131 158 136 160 206 163 145 147 143 135
287 285 286 289 283 270 204 233 144 89 311 259 94 341 335 322 314 151 155 298 320 218 168 100 167 223 173 179 159 154 114 254 169 197 204 229 186 191 188 177 96 101 147 155 65 235 159 203 187 189 174 185 197 210 200 173 138 220 197 157 173 154 161 186 227 177 214 244 305 30 154 157 215 224 203 168 144 146 160 169 147 173 162 148 162 152 120 134
289 284 285 287 280 246 212 159 42 224 230 292 331 337 319 319 316 191 37 34 286 136 154 202 219 168 168 165 164 163 200 148 126 209 184 184 193 186 198 183 149 151 157 142 196 352 152 185 191 195 193 190 210 192 122 157 157 208 170 136 161 173 158 182 184 239 177 359 294 291 105 87 218 188 173 168 156 161 173 167 164 162 157 175 165 138 128 125
283 282 286 290 283 261 237 245 143 236 252 326 323 318 322 308 216 175 203 109 236 97 85 73 259 106 84 131 181 191 227 244 169 164 170 140 204 109 195 195 135 160 226 188 178 257 174 182 196 182 192 212 169 133 163 158 143 246 125 127 152 165 176 175 194 202 27 159 255 225 192 160 259 191 181 193 173 166 176 164 179 158 167 158 147 136 130 120
281 278 283 285 293 278 228 179 224 254 323 297 319 321 307 334 142 196 54 263 14 34 111 201 180 183 151 154 188 235 190 286 269 129 138 153 194 218 231 131 133 154 221 212 180 217 199 170 173 191 207 183 131 185 146 158 175 179 104 91 72 144 161 161 128 139 64 251 237 212 202 158 219 207 193 186 191 164 155 165 159 151 143 138 125 130 130 120
287 277 271 278 237 230 150 208 264 255 257 303 321 311 303 16 177 146 140 236 25 291 17 7 260 131 159 161 170 225 220 269 330 154 138 163 157 174 131 116 104 148 227 219 229 240 268 283 182 210 131 157 161 193 157 157 178 139 156 130 122 323 48 63 11 68 190 251 242 193 197 180 211 212 210 185 129 173 165 158 163 148 144 134 127 125 124 120
278 276 287 278 233 232 200 193 144 40 343 333 331 36 134 183 19 142 208 331 50 310 39 317 67 152 195 252 171 164 178 116 258 136 161 170 164 177 190 180 161 166 205 196 217 156 239 239 302 259 171 172 175 172 184 152 181 181 116 133 155 218 130 240 96 218 210 210 267 183 157 64 237 250 188 182 170 165 176 166 157 143 139 131 128 125 124 124
279 282 274 254 242 223 256 134 309 23 347 349 33 16 178 213 191 231 284 326 72 21 295 302 327 314 205 193 244 170 175 176 181 228 127 164 153 196 205 184 187 155 188 164 103 156 237 283 235 244 209 186 166 180 165 168 188 181 175 163 165 163 176 201 214 309 327 282 317 158 166 194 326 300 207 176 173 161 137 106 128 136 139 134 131 129 122 120
289 294 277 250 224 217 213 260 22 9 345 333 38 68 202 190 228 153 228 1 311 345 298 336 317 285 180 180 217 152 152 242 132 203 138 160 166 182 209 217 172 170 97 154 173 181 174 221 242 192 217 165 187 193 179 153 160 192 130 123 172 158 170 198 183 197 206 211 314 333 125 240 134 239 310 157 132 109 127 157 131 115 115 117 118 117 115 113
109 335 242 288 238 219 217 217 170 278 284 11 184 207 188 180 56 178 49 345 358 322 311 316 282 277 40 176 220 168 154 221 219 125 168 149 190 183 189 199 209 150 141 142 234 120 206 217 317 180 259 163 200 176 146 119 130 181 148 105 109 220 138 182 199 133 158 125 56 348 200 49 172 325 65 119 115 115 122 122 124 124 124 122 120 124 120 119
40 350 238 237 187 200 174 168 132 113 207 200 229 185 196 180 198 42 360 336 10 345 322 317 360 61 355 141 274 184 216 117 212 138 259 168 183 179 187 191 189 191 154 168 193 181 149 225 189 159 212 204 194 147 190 148 193 207 136 197 214 119 88 84 68 104 90 79 237 301 340 226 312 54 114 127 126 132 122 127 127 131 131 128 125 125 121 120
30 335 354 227 228 183 189 176 142 123 140 226 246 214 204 326 168 120 22 48 318 327 324 10 329 23 9 176 182 198 201 90 236 153 243 179 209 176 179 207 158 179 199 131 232 188 152 244 277 170 196 232 203 177 178 184 139 128 190 212 61 101 94 140 215 354 83 175 208 233 202 171 169 187 153 102 115 112 125 130 129 132 132 128 126 127 127 126
329 276 267 241 223 191 166 147 121 133 178 239 238 204 76 31 292 47 44 34 18 7 323 321 277 9 14 16 357 208 185 163 217 155 210 202 246 197 161 192 188 176 198 206 125 255 148 303 211 203 190 201 191 139 212 214 150 175 201 132 148 171 228 245 120 193 157 173 195 278 210 221 210 159 149 137 120 129 122 124 130 136 135 129 130 124 122 117
298 324 318 234 319 213 146 141 139 154 152 222 254 244 341 254 281 333 6 31 247 290 332 307 312 357 26 342 266 299 170 178 188 188 141 220 162 197 170 172 194 176 174 153 219 230 55 184 299 197 187 182 180 140 209 206 218 199 99 162 156 151 211 202 204 174 110 151 113 271 189 219 204 213 168 151 155 158 144 144 143 141 139 134 130 127 126 123
29 337 287 324 334 112 132 140 141 158 273 230 216 223 10 322 311 343 34 117 311 72 267 299 37 340 330 258 306 290 294 162 150 227 154 188 189 267 178 179 164 185 173 166 205 142 269 133 239 285 190 136 208 189 211 190 184 192 157 185 188 201 189 141 78 129 155 159 186 138 213 238 246 165 183 171 166 164 157 149 144 141 138 133 130 130 129 131
245 86 268 4 331 136 126 128 153 193 201 287 316 326 346 307 333 319 329 304 280 215 253 296 339 235 3 346 324 336 293 299 170 194 183 192 187 195 238 181 141 175 138 170 207 161 113 127 202 314 133 199 217 213 202 177 184 170 172 190 193 172 146 187 230 55 100 120 172 164 203 293 258 192 167 165 156 144 141 137 135 136 137 135 133 135 137 134
333 344 268 139 318 139 134 144 188 77 202 200 229 182 280 323 323 309 313 301 259 270 229 253 250 256 243 236 227 301 300 302 215 131 233 158 225 191 233 176 169 155 161 185 192 221 154 167 116 193 201 217 227 250 200 179 167 178 171 223 191 144 115 142 198 219 55 34 88 120 119 259 259 295 156 152 154 148 141 134 131 133 134 136 138 140 139 140
221 247 340 12 20 165 154 123 174 163 233 258 321 303 293 288 264 304 300 320 339 252 238 209 231 214 222 219 177 219 221 252 181 197 177 149 214 216 236 184 169 156 151 178 137 233 149 228 303 295 300 278 293 261 265 195 149 145 205 171 143 197 188 170 172 182 126 133 88 70 106 250 317 118 129 125 133 135 134 133 128 127 132 138 143 142 137 129
292 282 306 155 157 178 186 145 202 207 242 310 311 288 304 291 293 292 277 307 278 318 323 305 265 200 260 192 223 255 278 63 280 119 320 228 199 269 210 186 176 179 155 212 170 211 177 284 144 12 0 341 346 2 56 191 175 173 175 192 183 182 186 138 94 107 120 207 160 136 190 225 168 136 126 131 133 133 134 135 131 132 138 141 142 140 133 132
289 231 228 283 144 164 193 1 63 124 217 251 267 277 284 270 232 237 248 260 255 261 259 240 229 163 237 154 217 210 262 208 301 283 141 176 257 316 60 190 191 174 203 175 173 155 166 194 129 187 187 166 184 204 213 177 203 196 169 174 181 174 159 127 174 143 165 224 136 152 159 278 126 134 135 137 136 129 130 136 138 137 144 142 139 132 133 133
316 338 98 70 122 177 312 345 343 233 170 235 277 256 243 263 271 247 228 258 242 244 235 257 284 231 192 48 303 243 248 185 168 270 29 324 293 307 236 312 176 174 221 182 164 142 162 141 131 157 162 190 207 216 247 152 156 192 191 174 188 161 159 129 118 143 185 177 124 238 163 135 143 145 150 149 146 143 143 147 149 145 144 138 135 134 135 132
303 269 358 113 80 209 258 282 274 276 202 173 225 325 245 232 285 306 217 250 231 220 234 222 223 214 213 162 241 273 224 319 296 271 241 246 245 250 292 267 230 164 203 182 167 125 94 153 185 136 175 210 223 272 288 265 196 187 171 191 162 143 146 130 142 213 159 119 208 299 162 143 173 158 157 152 148 145 146 148 148 142 138 136 133 131 128 121
305 76 298 13 276 177 204 246 229 250 259 310 283 315 277 292 277 260 292 237 256 255 213 296 194 222 191 199 180 170 353 244 342 191 320 4 354 323 344 337 45 352 5 178 179 125 136 144 242 111 275 251 275 273 288 317 102 115 119 152 160 163 150 151 197 169 147 163 180 178 174 162 171 171 168 168 163 159 155 152 143 133 123 126 131 133 133 129
240 290 260 281 301 75 194 91 189 214 248 242 271 259 275 266 271 246 246 320 303 280 231 306 209 208 218 210 135 195 213 97 292 283 207 342 36 327 5 338 319 13 21 163 197 168 91 143 118 96 63 316 314 316 301 177 121 63 40 25 354 168 166 159 143 163 169 212 158 161 178 177 172 169 162 151 135 129 130 129 130 132 136 135 134 135 134 134
352 1 329 332 241 264 255 256 237 203 226 225 243 224 238 246 256 268 249 220 281 282 333 25 280 341 325 179 148 149 219 171 145 96 317 79 332 72 71 152 272 319 17 169 171 190 105 291 67 79 67 299 305 332 296 191 133 96 45 29 32 8 76 99 111 107 81 51 134 146 133 90 33 125 121 119 122 121 126 139 142 138 137 139 137 135 133 133
287 202 221 313 309 233 201 221 220 218 235 205 227 258 251 253 261 258 266 226 225 251 286 282 328 339 354 90 132 227 229 186 195 220 219 256 244 232 139 253 159 5 345 19 336 133 106 178 35 70 98 300 303 11 275 141 95 95 45 23 13 14 107 134 119 182 118 133 124 115 117 131 134 129 123 131 139 143 146 146 144 145 142 140 138 135 134 134
308 238 207 227 295 268 253 186 223 221 227 208 210 219 226 256 252 315 317 272 232 239 236 30 331 26 305 308 253 237 230 202 235 246 209 219 204 218 186 168 122 123 53 327 308 132 125 125 119 106 138 247 253 291 268 263 102 15 356 328 325 322 12 82 64 73 148 138 126 146 199 165 150 145 139 147 148 145 144 150 144 143 144 142 141 138 137 134